Location: The Rolnick Observatory
(41.1711°N, 73.3275°W)
Time: 08:50:31
(UTC-04:00)

OTV 5 (USA 277) - Visible Passes

Search period start: 21 April 2019 00:00
Search period end: 01 May 2019 00:00
Orbit: 310 x 326 km, 54.5° (Epoch: 20 April)

Date Brightness Start Highest point End Pass type
(mag) Time Alt. Az. Time Alt. Az. Time Alt. Az.
21 Apr ? 04:36:49 10° NW 04:39:22 40° NE 04:41:55 10° ESE visible
22 Apr ? 03:20:39 11° NE 03:20:39 11° NE 03:21:02 10° ENE visible
22 Apr ? 04:51:38 11° NW 04:54:08 63° SW 04:56:45 10° SE visible
22 Apr ? 21:11:18 10° SSW 21:12:30 22° SSW 21:12:30 22° SSW visible
23 Apr ? 05:07:56 18° WSW 05:08:44 20° SW 05:10:46 10° S visible
23 Apr ? 21:26:00 10° WSW 21:28:41 51° NW 21:29:34 33° NNE visible
24 Apr ? 21:41:20 10° W 21:43:32 22° NNW 21:45:46 10° NNE visible
25 Apr ? 20:21:07 10° SW 20:23:50 89° SW 20:26:35 10° NE visible
25 Apr ? 21:57:21 10° NW 21:58:33 12° NNW 21:59:45 10° N visible
26 Apr ? 20:36:08 10° W 20:38:39 31° NW 20:41:08 10° NNE visible
27 Apr ? 20:51:46 10° WNW 20:53:35 16° NNW 20:55:23 10° NNE visible
